This is the latest recevied weather packets stored in our database for station/object ANJALA. If no packets are shown the sender has not sent any weather packets the latest 10 day(s).
| Time | Temp. | Humidity | Pressure | Rain* | Wind** | Luminosity | Snow |
|---|---|---|---|---|---|---|---|
| 1777907230 | 10.56° C | 91% | - | 0 mm | - | - | - |
| 1777906030 | 10.56° C | 94% | - | 0 mm | - | - | - |
| 1777904830 | 10° C | 97% | - | 0 mm | - | - | - |
| 1777903630 | 10° C | 96% | - | 0 mm | - | - | - |
| 1777902430 | 10° C | 95% | - | 1.27 mm | - | - | - |
| 1777901230 | 10° C | 96% | - | 1.27 mm | - | - | - |
| 1777900030 | 10° C | 97% | - | 1.27 mm | - | - | - |
| 1777898830 | 9.44° C | 96% | - | 1.27 mm | - | - | - |
| 1777897630 | 9.44° C | 96% | - | 1.27 mm | - | - | - |
| 1777896429 | 9.44° C | 95% | - | 1.27 mm | - | - | - |
| 1777895230 | 9.44° C | 95% | - | 0.76 mm | - | - | - |
| 1777894029 | 10° C | 95% | - | 0.76 mm | - | - | - |
| 1777892829 | 10° C | 90% | - | 0.76 mm | - | - | - |
| 1777890429 | 12.22° C | 78% | - | 0 mm | - | - | - |
| 1777889229 | 13.33° C | 67% | - | 0 mm | - | - | - |
| 1777888029 | 13.89° C | 62% | - | 0 mm | - | - | - |
| 1777886829 | 15° C | 60% | - | 0 mm | - | - | - |
| 1777885629 | 15° C | 58% | - | 0 mm | - | - | - |
| 1777884429 | 14.44° C | 58% | - | 0 mm | - | - | - |
| 1777883229 | 14.44° C | 61% | - | 0 mm | - | - | - |
| 1777882029 | 13.89° C | 62% | - | 0 mm | - | - | - |
| 1777880829 | 13.33° C | 68% | - | 0 mm | - | - | - |
| 1777879629 | 12.78° C | 69% | - | 0 mm | - | - | - |
| 1777878428 | 12.78° C | 71% | - | 0 mm | - | - | - |
| 1777877229 | 12.22° C | 72% | - | 0 mm | - | - | - |
* Rain latest hour (hover to see other rain measurements)
** Current wind speed in m/s (hover to see current wind gust speed)